Tracking 19908 objects as of 18-Oct-2019
HD Live streaming from Space Station
objects crossing your sky now

IRIDIUM 33 DEB

Track IRIDIUM 33 DEB now!
10-day predictions


NORAD ID: 33864
Int'l Code: 1997-051AH
Perigee: 727.1 km
Apogee: 733.2 km
Inclination: 86.3 °
Period: 99.3 minutes
Semi major axis: 7101 km
RCS: 0.049 m2 (small)
Launch date: September 14, 1997
Source: United States (US)
Launch site: TYURATAM MISSILE AND SPACE COMPLEX (TTMTR)

Note: This is SATELLITE DEBRIS
aabbcc
Your satellite tracking list
Your tracking list is empty




NASA's NSSDC Master Catalog

Two Line Element Set (TLE):
1 33864U 97051AH  19290.81064367  .00000868  00000-0  21525-3 0  9992
2 33864  86.2808 216.7362 0004256  20.1469   4.0689 14.50803507562063
Source of the keplerian elements: AFSPC